ROMMA est une association bénévole à but non lucratif. Votre soutien est indispensable : ADHERER à ROMMA ou FAIRE un DON

Chambon - (38, Isère)

Oisans (2460 m)   Longitude: 06° 10' 42" E   Latitude: 45° 01' 32" N Station partenaire n°803
 

Détail journalier du     <<     >>

Température Humidité Vent Dir Rafale Dir. rafale Neige 1 Neige 2
Heure (°C) (%) (km/h) (km/h) (cm) (cm)
01:00 7.8913ENE5ENE42
02:00 8.9798ENE15OSO31
03:00 11.12511SSO17SSO41
04:00 11.6269SSO16SSO41
05:00 11.82411SSO17SSO42
06:00 11.52612SSO18SSO51
07:00 11.72510SSO17SSO41
08:00 12.8266S16SSO32
09:00 13.6264S14S41
10:00 13.9315NE13NE31
11:00 14.3323NE11NE41
12:00 14.2336NNE19NNE32
13:00 15.7329N24O32
14:00 13.83321SO46SO51
15:00 15.23122SO44SO52
16:00 15.33618OSO30O42
17:00 15.74114OSO27O31
18:00 14.35114OSO28O52
19:00 13.95913OSO28OSO42
20:00 14.45713OSO28O22
21:00 11.7736NE26OSO22
22:00 10.2845NE21OSO41
23:00 9.5905OSO19OSO41
minuit 9.1922ESE12S21

Graphique du 01-08-2019

 

Serveur OMMA